This demonstration page uses our WeatherBlox Daily Observations layout. Learn more.

Left ArrowRight Arrow

39.92423, -83.80882

Hourly Observations for October 22, 2021

Temp ( °F °C ) Dew Point ( °F °C ) Humidity (%) Winds ( mph kmh ) Pressure ( in mb ) Visibility ( mi km ) Precip ( " mm )
12:21 am 00:21 Cloudy 52 11 48 9 88 88 WNW 14 22 30.01 1016 10 16 N/A
12:56 am 00:56 Cloudy 52 11.1 48 8.9 86 86 WNW 18 30 29.99 1016 10 16 N/A
1:56 am 01:56 Cloudy 51 10.6 48 8.9 89 89 WNW 10 17 30.00 1016 10 16 N/A
2:24 am 02:24 Cloudy 52 11 48 9 88 88 WNW 10 17 30.02 1016 10 16 N/A
2:38 am 02:38 Cloudy 52 11 48 9 88 88 WNW 13 20 30.02 1016 10 16 N/A
2:56 am 02:56 Cloudy 50 10 49 9.4 96 96 WNW 13 20 30.01 1016 10 16 N/A
3:11 am 03:11 Cloudy 50 10 48 9 94 94 WNW 9 15 30.02 1017 10 16 N/A
3:22 am 03:22 Cloudy 50 10 48 9 94 94 WNW 9 15 30.02 1017 10 16 N/A
3:56 am 03:56 Cloudy 50 10 50 10 100 100 WNW 10 17 30.01 1016 10 16 N/A
4:56 am 04:56 Cloudy 51 10.6 51 10.6 100 100 WNW 8 13 30.00 1016 10 16 N/A
5:41 am 05:41 Cloudy 50 10 N/A N/A WNW 7 11 30.01 1016 7 11 N/A
5:56 am 05:56 Cloudy with Light Rain 50 10 N/A N/A WNW 7 11 30.01 1016 3 5 N/A
6:40 am 06:40 Cloudy 50 10 N/A N/A WNW 7 11 30.02 1017 10 16 N/A
6:56 am 06:56 Cloudy 50 10 N/A N/A WNW 9 15 30.02 1017 10 16 N/A
7:56 am 07:56 Cloudy 48 8.9 48 8.9 100 100 NNW 6 9 30.04 1017 10 16 N/A
8:25 am 08:25 Cloudy 48 9 46 8 94 94 NNW 6 9 30.06 1018 10 16 N/A
8:56 am 08:56 Cloudy 48 8.9 47 8.3 96 96 NW 6 9 30.07 1018 10 16 N/A
9:56 am 09:56 Cloudy 48 8.9 42 5.6 80 80 WNW 5 7 30.07 1018 10 16 N/A
10:56 am 10:56 Cloudy 49 9.4 43 6.1 80 80 W 8 13 30.08 1019 10 16 N/A
11:15 am 11:15 Cloudy 48 9 43 6 82 82 W 8 13 30.09 1019 10 16 N/A
11:56 am 11:56 Cloudy 49 9.4 40 4.4 71 71 WNW 6 9 30.08 1019 10 16 N/A
12:56 pm 12:56 Cloudy 49 9.4 44 6.7 83 83 NW 6 9 30.07 1018 10 16 N/A
1:56 pm 13:56 Cloudy 48 8.9 42 5.6 80 80 undefined N/A 30.06 1018 10 16 N/A
2:56 pm 14:56 Cloudy 50 10 43 6.1 77 77 N N/A 30.04 1017 10 16 N/A
3:11 pm 15:11 Cloudy 52 11 43 6 72 72 W 3 6 30.03 1017 10 16 N/A
3:56 pm 15:56 Cloudy 51 10.6 44 6.7 77 77 W 6 9 30.03 1017 10 16 N/A
4:56 pm 16:56 Cloudy 50 10 46 7.8 86 86 SSW 5 7 30.04 1017 10 16 N/A
5:56 pm 17:56 Cloudy 49 9.4 48 8.9 97 97 SSW 3 6 30.04 1017 10 16 N/A
6:38 pm 18:38 Cloudy with Mist and Fog 48 9 48 9 100 100 WSW 3 6 30.05 1017 6 10 N/A
6:50 pm 18:50 Cloudy with Light Rain 48 9 48 9 100 100 W 3 6 30.05 1017 3 4 N/A
6:54 pm 18:54 Cloudy with Light Rain 48 9 48 9 100 100 W 3 6 30.05 1017 2 3 N/A
6:56 pm 18:56 Cloudy with Light Rain 48 8.9 48 8.9 100 100 W 3 6 30.05 1018 2 2 N/A
7:10 pm 19:10 Cloudy with Light Rain 48 9 N/A N/A N N/A 30.05 1017 3 5 N/A
7:26 pm 19:26 Cloudy with Light Rain 48 9 N/A N/A N N/A 30.05 1017 4 6 N/A
7:34 pm 19:34 Cloudy with Light Rain 46 8 N/A N/A N N/A 30.04 1017 6 10 N/A
7:56 pm 19:56 Cloudy with Light Rain 46 8 N/A N/A N N/A 30.04 1017 4 6 N/A
8:19 pm 20:19 Cloudy with Light Rain 46 8 N/A N/A N N/A 30.04 1017 4 6 N/A
8:33 pm 20:33 Cloudy with Light Rain 46 8 N/A N/A N N/A 30.04 1017 3 5 N/A
8:42 pm 20:42 Cloudy with Haze 46 8 N/A N/A SE 3 6 30.04 1017 4 6 N/A
8:53 pm 20:53 Cloudy with Haze 46 8 N/A N/A SSE 3 6 30.04 1017 4 6 N/A
8:56 pm 20:56 Cloudy with Haze 46 8 N/A N/A N N/A 30.04 1017 4 6 N/A
9:27 pm 21:27 Cloudy with Mist and Fog 48 9 N/A N/A N N/A 30.04 1017 2 3 N/A
9:43 pm 21:43 Cloudy with Light Rain 48 9 N/A N/A N N/A 30.04 1017 3 5 N/A
9:56 pm 21:56 Cloudy with Light Rain 48 9 N/A N/A N N/A 30.04 1017 4 6 N/A
10:56 pm 22:56 Cloudy with Haze 48 9 N/A N/A N N/A 30.03 1017 5 8 N/A
11:46 pm 23:46 Cloudy with Light Rain 48 9 N/A N/A WSW 3 6 30.02 1016 2 3 N/A
11:56 pm 23:56 Cloudy with Light Rain 48 9 N/A N/A N N/A 30.01 1016 2 3 N/A

Powered by AerisWeather